sat.trackr.live / text

‹ back to catalog

STARLINK-31298

NORAD 59167 · 2024-044R

PAYLOAD ACTIVE UNKNOWN

§ Identity

Operator
Country
US
Launch date
2024-03-04
Launch site
AFETR
Launch vehicle
Mass (kg)
RCS (m²)

Purposes: comms

External: N2YO · Heavens-Above · Gunter

§ Orbital elements

Epoch: 2026-09-20T22:04:16.435488Z

Period
94.27 min
Inclination
43.0014°
Eccentricity
0.0001189
Mean motion
15.27577885 rev/d
Perigee alt
482.2 km
Apogee alt
483.9 km
Semi-major
6,861.2 km
B*
2.2408e-5
RAAN
84.4532°
Arg perigee
266.8269°
Mean anomaly
93.2446°
Rev number
14,342

§ Raw data

STARLINK-312981 59167U 24044R   26263.91963467  .00000355  00000+0  22408-4 0  99982 59167  43.0014  84.4532 0001189 266.8269  93.2446 15.27577885143423

JSON: /api/v1/satellites/59167 · /tle

For live sub-satellite position, see the globe view (requires WebGL).

§ Visibility from observer

Set your observer location to see the next 7 days of passes ≥ 10°. The values pass through the URL so the page stays shareable.

No JS? Fill the form by hand. The geolocation button needs JavaScript.